Virtual Norwegian is not affiliated with Norwegian Air Shuttle in any way.
If you are looking for the real "Norwegian", or you wish to book Norwegian flights, please visit Norwegian.com


We use cookies to ensure you get the best experience on our website.   ACCEPT

EDNY - FDH - Friedrichshafen (Friedrichshafen)

General Info Alternate Airport
ICAO: EDNY Elevation: 1367 ft ICAO: EDDB
IATA: FDH Country: Germany IATA: SXF
City: Friedrichshafen Charts: Log in to view charts City: Berlin
Name: Friedrichshafen Hub: No Name Schonefeld
General Info
ICAO: EDNY
IATA: FDH
City: Friedrichshafen
Name: Friedrichshafen
Elevation: 1367 ft
Country: Germany
Charts: Log in to view charts
Hub: No
 
Alternate Airport
ICAO: EDDB
IATA: SXF
City: Berlin
Name: Schonefeld

Weather
240550Z 03003KT 320V090 9999 BKN026 09/05 Q1030
Weather
240550Z 03003KT 320V090 9999 BKN026 09/05 Q1030

NOTAMs
NOTAMs currently unavailable.
NOTAMs
NOTAMs currently unavailable

Route map
Airport
Airport (hub)